STARLINK-2695 (48644 NORAD) Tracking and Keplerian Element Data

This shows tracking and keplerian element data for the satellite.

Feedback or suggestion? Click here.




ElementValue
Catalog48644
NameSTARLINK-2695
Epoch Orbit1758
Epoch Day261.71267154
Epoch Year2021
RAAN252.3205
Inclination53.0553
Eccentricity0.0001015
Argument of Perigee64.7682
Mean Anonmoly295.3412
Mean Motion15.06394734
Decay Rate-6.83E-06
L11 48644U 21044G 21261.71267154 -.00000683 00000-0 -26991-4 0 9992
L22 48644 53.0553 252.3205 0001015 64.7682 295.3412 15.06394734 17587

Live tracking and technical data element details for STARLINK-2695 (NORAD 48644). STARLINK-2695 can be tracked NOW for your location showing map with azimuth and elevation plus other details from your city location.

Track the satellite on the map from your city or location and see movement details for azimuth, elevation, latitude, longitude, range, height, and movement on the map or in text.







IsCatalogInMostPopularTable: catalog: 48644, numindb: 27
Update: records affected: 1



GetName: 48644 STARLINK-2695

Hit Count: updated at: Mon, 20 Sep 2021 01:27:45 GMT